Weather History for KHPN - April, 2014

Change the Weather History Date:

Wednesday, April 30, 2014

  Actual Average Record
Temperature  
Mean Temperature 42 °F -  
Max Temperature 46 °F 63 °F 83 °F (1985)
Min Temperature 39 °F 43 °F 34 °F (1975)
Degree Days  
Heating Degree Days 22    
Moisture  
Dew Point 40 °F    
Average Humidity 91    
Maximum Humidity 100    
Minimum Humidity 82    
Precipitation  
Precipitation 2.56 in - - ()
Sea Level Pressure  
Sea Level Pressure 30.27 in    
Wind  
Wind Speed 12 mph (East)    
Max Wind Speed 18 mph    
Max Gust Speed 33 mph    
Visibility 3 miles    
Events Rain    
Averages and records for this station are not official NWS values.
T = Trace of Precipitation, MM = Missing Value Source: NWS Daily Summary

Daily Weather History Graph

Daily Weather History Graph

Search for Another Location

Airport or City:

Trip Planner

Search our weather history database for the weather conditions in past years. The results will help you decide how hot, cold, wet, or windy it might be!

Date:

Astronomy

Apr. 30, 2014 Rise Set
Actual Time 5:54 AM EDT 7:50 PM EDT
Civil Twilight 5:24 AM EDT 8:20 PM EDT
Nautical Twilight 4:48 AM EDT 8:57 PM EDT
Astronomical Twilight 4:08 AM EDT 9:36 PM EDT
Moon 6:53 AM EDT (4/30) 9:27 PM EDT (4/30)
Length of Visible Light 14h 56m
Length of Day
13h 56m
New Moon, 2% of the Moon is Illuminated
Apr 30
New Moon
May 6
First Quarter
May 14
Full
May 21
Last Quarter
May 28
New

Hourly Weather History & Observations

Time (EDT) Temp. Windchill Dew Point Humidity Pressure Visibility Wind Dir Wind Speed Gust Speed Precip Events Conditions
12:56 AM 41.0 °F 35.2 °F 37.0 °F 86% 30.42 in 10.0 mi East 9.2 mph 19.6 mph 0.00 in   Overcast
1:56 AM 41.0 °F 35.2 °F 36.0 °F 82% 30.41 in 10.0 mi East 9.2 mph 20.7 mph N/A   Overcast
2:41 AM 39.2 °F 30.5 °F 35.6 °F 87% 30.37 in 3.0 mi East 16.1 mph 21.9 mph 0.09 in Rain Rain
2:56 AM 39.9 °F 33.4 °F 36.0 °F 86% 30.39 in 3.0 mi East 10.4 mph 24.2 mph 0.14 in Rain Rain
3:12 AM 39.2 °F 32.5 °F 37.4 °F 93% 30.38 in 4.0 mi East 10.4 mph 25.3 mph 0.05 in Rain Light Rain
3:33 AM 39.2 °F 32.0 °F 37.4 °F 93% 30.37 in 6.0 mi East 11.5 mph 21.9 mph 0.08 in Rain Light Rain
3:56 AM 39.9 °F 32.9 °F 37.0 °F 89% 30.38 in 5.0 mi East 11.5 mph 21.9 mph 0.12 in Rain Light Rain
4:56 AM 39.9 °F 32.1 °F 37.0 °F 89% 30.38 in 4.0 mi East 13.8 mph 20.7 mph 0.06 in Rain Rain
5:56 AM 39.9 °F 32.5 °F 37.0 °F 89% 30.37 in 8.0 mi East 12.7 mph - 0.02 in   Light Drizzle
6:56 AM 39.9 °F 32.9 °F 37.0 °F 89% 30.38 in 2.5 mi East 11.5 mph 25.3 mph 0.03 in Rain Light Rain
7:56 AM 41.0 °F 32.8 °F 37.9 °F 89% 30.37 in 2.5 mi East 16.1 mph 24.2 mph 0.07 in Rain Light Rain
8:56 AM 41.0 °F 34.3 °F 37.9 °F 89% 30.37 in 2.5 mi East 11.5 mph 28.8 mph 0.02 in Rain Light Rain
9:56 AM 41.0 °F 33.5 °F 39.0 °F 93% 30.35 in 2.5 mi East 13.8 mph 23.0 mph 0.03 in Rain Light Rain
10:56 AM 42.1 °F 36.1 °F 39.0 °F 89% 30.35 in 2.5 mi East 10.4 mph 29.9 mph 0.06 in Rain Light Rain
11:56 AM 42.1 °F 35.2 °F 39.0 °F 89% 30.32 in 2.0 mi East 12.7 mph 33.4 mph 0.14 in Rain Light Rain
12:56 PM 42.1 °F 34.9 °F 39.9 °F 92% 30.32 in 2.5 mi ESE 13.8 mph 26.5 mph 0.12 in Rain Light Rain
1:25 PM 42.8 °F 35.8 °F 39.2 °F 87% 30.30 in 2.0 mi East 13.8 mph 24.2 mph 0.08 in Rain Light Rain
1:56 PM 43.0 °F 36.8 °F 41.0 °F 93% 30.31 in 2.0 mi East 11.5 mph 20.7 mph 0.14 in Rain Light Rain
2:09 PM 42.8 °F 35.8 °F 41.0 °F 93% 30.28 in 2.5 mi East 13.8 mph 27.6 mph 0.02 in Rain Light Rain
2:56 PM 43.0 °F 35.1 °F 39.9 °F 89% 30.27 in 2.5 mi East 17.3 mph 27.6 mph 0.10 in Rain Light Rain
3:56 PM 43.0 °F 35.7 °F 39.9 °F 89% 30.24 in 2.5 mi East 15.0 mph 26.5 mph 0.06 in Rain Light Rain
4:22 PM 42.8 °F 36.2 °F 39.2 °F 87% 30.22 in 1.5 mi East 12.7 mph 24.2 mph 0.06 in Rain Light Rain
4:56 PM 43.0 °F 36.0 °F 41.0 °F 93% 30.22 in 2.5 mi East 13.8 mph 26.5 mph 0.11 in Rain Light Rain
5:56 PM 43.0 °F 34.8 °F 41.0 °F 93% 30.19 in 2.5 mi East 18.4 mph 27.6 mph 0.20 in Rain Light Rain
6:56 PM 43.0 °F 35.4 °F 41.0 °F 93% 30.17 in 2.5 mi East 16.1 mph 27.6 mph 0.25 in Rain Light Rain
7:56 PM 44.1 °F 38.6 °F 42.1 °F 93% 30.15 in 3.0 mi East 10.4 mph 19.6 mph 0.34 in Rain Rain
8:56 PM 44.1 °F 38.1 °F 43.0 °F 96% 30.12 in 2.0 mi East 11.5 mph 24.2 mph 0.25 in Rain Rain
9:56 PM 46.4 °F 40.7 °F 44.6 °F 93% 30.07 in 3.0 mi East 12.7 mph - N/A Rain Rain
10:56 PM 46.4 °F 42.9 °F 44.6 °F 93% 30.04 in 1.8 mi East 6.9 mph - N/A Rain Rain
11:54 PM 46.4 °F 41.1 °F 46.4 °F 100% 30.00 in 3.0 mi ENE 11.5 mph - 0.29 in Rain Rain
11:56 PM 46.9 °F - 46.0 °F 97% 30.01 in 2.5 mi East 11.5 mph - 0.30 in Rain Rain